This is the latest recevied weather packets stored in our database for station/object JA3YAI-13. If no packets are shown the sender has not sent any weather packets the latest 10 day(s).
| Time | Temp. | Humidity | Pressure | Rain* | Wind** | Luminosity | Snow |
|---|---|---|---|---|---|---|---|
| 1777166785 | 20° C | 68% | 1009.3 hPa | 0 mm | - | - | - |
| 1777166185 | 19.44° C | 69% | 1009.3 hPa | 0 mm | - | - | - |
| 1777165585 | 19.44° C | 67% | 1009.3 hPa | 0 mm | - | - | - |
| 1777164984 | 18.89° C | 70% | 1009.5 hPa | 0 mm | - | - | - |
| 1777164384 | 19.44° C | 68% | 1009.6 hPa | 0 mm | - | - | - |
| 1777163786 | 18.33° C | 70% | 1009.6 hPa | 0 mm | - | - | - |
| 1777163185 | 18.89° C | 70% | 1009.9 hPa | 0 mm | - | - | - |
| 1777162585 | 18.33° C | 71% | 1009.9 hPa | 0 mm | - | - | - |
| 1777161984 | 18.33° C | 72% | 1009.8 hPa | 0 mm | - | - | - |
| 1777161384 | 17.78° C | 73% | 1009.9 hPa | 0 mm | - | - | - |
| 1777160786 | 18.33° C | 73% | 1010.1 hPa | 0 mm | - | - | - |
| 1777160185 | 17.78° C | 75% | 1010 hPa | 0 mm | - | - | - |
| 1777159585 | 17.22° C | 76% | 1010.1 hPa | 0 mm | - | - | - |
| 1777158984 | 17.22° C | 76% | 1009.9 hPa | 0 mm | - | - | - |
| 1777158384 | 16.67° C | 79% | 1010.4 hPa | 0 mm | - | - | - |
| 1777157786 | 16.11° C | 80% | 1010.3 hPa | 0 mm | - | - | - |
| 1777157185 | 16.11° C | 80% | 1010.5 hPa | 0 mm | - | - | - |
| 1777156585 | 16.11° C | 80% | 1010.6 hPa | 0 mm | - | - | - |
| 1777155985 | 16.11° C | 80% | 1010.4 hPa | 0 mm | - | - | - |
| 1777155384 | 16.11° C | 80% | 1010.4 hPa | 0 mm | - | - | - |
| 1777154784 | 16.11° C | 82% | 1010.3 hPa | 0 mm | - | - | - |
| 1777154186 | 15° C | 83% | 1010.2 hPa | 0 mm | - | - | - |
| 1777153585 | 15° C | 85% | 1010.1 hPa | 0 mm | - | - | - |
| 1777152985 | 14.44° C | 86% | 1010.2 hPa | 0 mm | - | - | - |
| 1777152385 | 14.44° C | 87% | 1010.2 hPa | 0 mm | - | - | - |
* Rain latest hour (hover to see other rain measurements)
** Current wind speed in m/s (hover to see current wind gust speed)